Location: Beuerbach
(48.1459°N, 10.9174°E)
Time: 02:13:58
(UTC+00:00)

CZ-2C R/B - Pass Details

Date: 23 May 2024
Orbit: 703 x 904 km, 98.2° (Epoch: 19 June)

Event Time Altitude Azimuth Distance (km) Brightness Sun altitude
Rises 01:35:19 0° 14° (NNE) 3,539 7.8 -14.2°
Reaches altitude 10° 01:37:45 10° 15° (NNE) 2,597 6.9 -14.0°
Maximum altitude 01:43:36 84° 103° (ESE) 911 3.4 -13.4°
Enters shadow 01:48:30 15° 192° (SSW) 2,223 4.8 -12.9°
